BM3FFG-1 Weather Reports


time (UTC)temp
F
wind
direction
speed
knots
gust
knots
rain 1hr
in
rain 24hr
in
rain mn
in
humidity
%
barometer
mb
20260504080942 84 0.0 0.0 0.00 0.00 0.00 67 965.0
20260504044943 85 0.0 0.0 0.00 0.00 0.00 66 965.3
20260504042943 86 0.0 0.0 0.00 0.00 0.00 67 965.3
20260504040943 85 0.0 0.0 0.00 0.00 0.00 69 965.2
20260504034943 85 0.0 0.0 0.00 0.00 0.00 70 965.5
20260504032942 84 0.0 0.0 0.00 0.00 0.00 71 965.6
20260504030943 85 0.0 0.0 0.00 0.00 0.00 69 965.8
20260504024942 84 0.0 0.0 0.00 0.00 0.00 70 965.7
20260504022943 84 0.0 0.0 0.00 0.00 0.00 67 965.9
20260504020943 84 0.0 0.0 0.00 0.00 0.00 69 965.8
20260504014943 83 0.0 0.0 0.00 0.00 0.00 69 966.0
20260504012943 82 0.0 0.0 0.00 0.00 0.00 69 966.1
20260504010943 82 0.0 0.0 0.00 0.00 0.00 71 966.1
20260504004943 82 0.0 0.0 0.00 0.00 0.00 73 966.1
20260504002943 82 0.0 0.0 0.00 0.00 0.00 77 965.9
20260504000943 82 0.0 0.0 0.00 0.00 0.00 78 965.8
20260503234943 81 0.0 0.0 0.00 0.00 0.00 80 966.1
20260503232943 81 0.0 0.0 0.00 0.00 0.00 82 966.2
20260503230943 81 0.0 0.0 0.00 0.00 0.00 82 966.5
20260503224943 81 0.0 0.0 0.00 0.00 0.00 82 966.2
20260503222942 81 0.0 0.0 0.00 0.00 0.00 82 966.1
20260503220943 81 0.0 0.0 0.00 0.00 0.00 82 966.1
20260503214943 81 0.0 0.0 0.00 0.00 0.00 82 966.1
20260503212943 81 0.0 0.0 0.00 0.00 0.00 82 965.8
20260503210943 81 0.0 0.0 0.00 0.00 0.00 82 965.7
20260503204943 81 0.0 0.0 0.00 0.00 0.00 81 965.6
20260503202944 81 0.0 0.0 0.00 0.00 0.00 81 965.5
20260503200943 82 0.0 0.0 0.00 0.00 0.00 80 965.3
20260503194943 82 0.0 0.0 0.00 0.00 0.00 80 965.2
20260503192943 82 0.0 0.0 0.00 0.00 0.00 80 965.1
20260503190943 82 0.0 0.0 0.00 0.00 0.00 80 965.0
20260503184943 82 0.0 0.0 0.00 0.00 0.00 80 964.9
20260503182943 82 0.0 0.0 0.00 0.00 0.00 80 964.9
20260503180943 82 0.0 0.0 0.00 0.00 0.00 79 964.9
20260503174943 82 0.0 0.0 0.00 0.00 0.00 78 965.1
20260503172943 82 0.0 0.0 0.00 0.00 0.00 78 965.3
20260503170942 82 0.0 0.0 0.00 0.00 0.00 79 965.6
20260503150943 83 0.0 0.0 0.00 0.00 0.00 78 965.3
20260503130944 84 0.0 0.0 0.00 0.00 0.00 77 964.7